Total_Precipitation_Accumulation
0.11 0.28 0.58 1.00 2.00 2.25 1.79 0.99 0.65 0.52 0.51 0.61 0.59 0.58 0.78 1.10 1.47 2.17 1.68 0.97 0.66 0.67 0.87 1.15 1.34 1.37 1.32 1.17 1.28 1.42 1.44 1.57 1.78 2.02 2.30 2.34 2.44 2.52 2.56 2.81 3.09 3.25 3.26 3.10 2.91 2.65 2.33 2.03 1.77
0.22 0.51 0.80 1.21 2.16 2.40 1.84 0.95 0.64 0.47 0.50 0.61 0.70 0.66 0.61 0.72 0.65 0.82 1.14 1.12 0.76 0.78 0.94 1.11 1.18 1.21 1.19 1.13 1.26 1.43 1.50 1.60 1.73 1.85 2.05 2.18 2.33 2.47 2.63 2.81 2.80 2.88 2.90 2.79 2.56 2.20 1.93 1.68 1.43
0.38 0.59 0.86 1.32 1.52 1.54 1.32 0.82 0.57 0.50 0.51 0.66 0.72 0.55 0.58 0.82 0.70 0.83 0.98 0.94 0.80 0.79 0.93 1.14 1.09 1.10 1.12 1.16 1.38 1.47 1.52 1.63 1.66 1.74 1.89 2.06 2.19 2.32 2.58 2.71 2.65 2.66 2.62 2.38 2.13 1.93 1.71 1.48 1.32
0.43 0.65 0.77 0.92 0.76 0.63 0.59 0.54 0.52 0.55 0.59 0.57 0.64 0.66 0.63 0.77 0.74 0.79 0.86 0.80 0.73 0.74 0.84 1.14 1.11 1.00 1.07 1.30 1.43 1.38 1.40 1.50 1.58 1.72 1.83 1.96 2.01 2.15 2.36 2.35 2.31 2.28 2.22 2.07 2.00 1.81 1.59 1.37 1.20
0.34 0.60 0.80 0.65 0.45 0.44 0.49 0.50 0.55 0.63 0.63 0.71 0.81 0.88 0.99 0.90 0.73 0.86 0.99 0.92 0.81 0.81 0.84 1.00 1.05 0.96 1.04 1.18 1.27 1.25 1.25 1.37 1.51 1.71 1.87 1.93 1.94 2.01 2.03 1.97 1.95 1.99 1.92 1.77 1.71 1.61 1.47 1.34 1.25
0.39 0.59 0.55 0.41 0.35 0.38 0.47 0.49 0.51 0.57 0.63 0.83 0.89 0.85 1.09 1.06 0.85 0.93 0.99 1.19 1.03 0.74 0.69 0.81 1.02 0.99 1.03 1.09 1.18 1.26 1.28 1.42 1.58 1.65 1.78 1.78 1.71 1.70 1.71 1.82 1.86 1.79 1.64 1.55 1.53 1.44 1.38 1.32 1.28
0.44 0.53 0.38 0.29 0.27 0.31 0.31 0.41 0.52 0.55 0.66 0.80 0.72 0.74 1.09 1.29 1.09 1.01 1.00 1.06 0.93 0.68 0.69 0.76 0.86 0.85 0.97 1.21 1.35 1.41 1.48 1.56 1.57 1.52 1.66 1.67 1.66 1.65 1.64 1.68 1.71 1.62 1.48 1.44 1.43 1.28 1.15 1.04 1.08
0.27 0.30 0.24 0.22 0.20 0.24 0.21 0.26 0.41 0.57 0.64 0.61 0.64 0.88 1.30 1.27 0.94 0.92 0.97 1.02 0.96 0.88 0.85 0.88 0.90 0.83 0.82 1.04 1.35 1.54 1.65 1.64 1.59 1.64 1.72 1.75 1.78 1.74 1.72 1.49 1.51 1.55 1.47 1.46 1.45 1.34 1.12 1.03 1.09
0.17 0.19 0.18 0.15 0.13 0.18 0.19 0.23 0.33 0.49 0.54 0.60 0.78 0.88 0.99 0.85 0.72 0.89 1.08 1.27 1.37 1.19 1.11 1.06 0.92 0.86 0.87 0.91 1.10 1.38 1.62 1.77 1.85 1.91 1.88 1.98 2.07 2.02 2.08 1.77 1.84 1.80 1.69 1.66 1.71 1.58 1.33 1.19 1.17
0.15 0.14 0.11 0.08 0.08 0.14 0.16 0.24 0.39 0.58 0.70 0.92 1.23 1.28 1.02 0.88 0.83 0.96 1.22 1.39 1.68 1.45 1.15 1.12 1.01 0.95 0.92 0.83 1.02 1.33 1.38 1.59 1.82 1.95 1.98 2.25 2.47 2.53 2.16 2.39 2.50 2.35 2.26 2.12 2.13 2.20 1.85 1.46 1.41
0.07 0.06 0.04 0.04 0.05 0.07 0.12 0.20 0.30 0.48 0.87 1.34 1.42 1.23 1.02 1.11 1.14 1.16 1.48 1.60 1.57 1.43 1.44 1.42 1.25 1.21 1.18 1.25 1.14 1.31 1.52 1.76 1.79 1.79 2.03 2.44 2.40 2.36 2.25 2.42 2.82 2.86 2.83 2.70 2.69 2.68 2.25 2.08 2.25
0.04 0.03 0.02 0.04 0.05 0.06 0.08 0.11 0.22 0.45 0.92 1.07 1.04 0.98 0.97 1.18 1.25 1.37 1.71 1.80 1.87 1.75 1.99 2.08 1.78 1.79 1.68 1.50 1.41 1.40 1.51 1.73 1.91 2.19 2.32 2.46 2.71 2.74 2.55 2.59 2.77 2.88 3.01 3.39 3.23 3.08 2.79 2.67 2.49
0.04 0.03 0.02 0.03 0.06 0.09 0.07 0.13 0.30 0.63 0.82 0.71 0.61 0.84 0.93 1.27 1.61 1.82 2.08 1.98 2.30 2.46 2.70 2.88 2.45 2.35 2.22 2.23 2.16 1.87 1.97 2.09 2.25 2.49 2.70 2.74 3.00 3.13 3.08 2.94 2.85 2.64 2.72 3.07 3.31 3.18 3.15 3.01 2.80
0.06 0.04 0.04 0.04 0.06 0.08 0.13 0.23 0.41 0.69 0.63 0.57 0.73 1.13 1.36 1.36 1.67 2.07 2.23 2.35 2.75 2.97 3.14 3.28 3.16 3.18 3.02 2.78 2.82 2.78 2.41 2.51 2.54 2.63 2.72 2.86 3.09 3.49 3.63 3.45 3.28 2.87 2.75 2.84 3.14 3.19 3.39 3.28 3.08
0.07 0.09 0.11 0.11 0.12 0.11 0.17 0.48 0.59 0.70 0.59 0.61 0.85 1.20 1.55 1.49 1.66 1.97 2.19 2.70 3.43 3.81 3.74 3.79 3.76 4.04 3.94 3.54 3.20 2.89 2.71 2.68 2.90 2.96 3.02 3.06 3.29 3.67 3.65 3.45 3.07 2.73 2.71 2.94 2.96 2.94 3.18 3.01 2.88
0.09 0.17 0.29 0.25 0.18 0.17 0.26 0.79 0.85 0.74 0.87 0.94 1.11 1.29 1.56 1.61 1.67 1.91 2.40 3.20 4.07 4.62 4.57 4.37 3.95 4.37 4.41 4.12 3.89 3.51 3.24 3.30 3.30 3.03 3.16 3.10 3.24 3.18 3.26 2.98 2.64 2.65 2.78 2.94 3.13 3.01 3.07 3.10 3.18
0.18 0.24 0.31 0.32 0.23 0.20 0.31 0.95 0.95 0.70 0.97 1.22 1.13 1.27 1.49 1.67 1.82 1.96 2.53 3.40 4.25 5.07 5.30 5.28 5.19 4.96 4.72 4.54 4.40 4.20 4.02 3.72 3.35 3.20 3.28 2.99 2.68 2.47 2.68 2.67 2.62 2.55 2.71 2.78 2.60 2.99 3.25 3.24 3.26
0.22 0.24 0.29 0.34 0.27 0.25 0.39 0.73 0.80 0.81 0.97 1.14 1.12 1.14 1.26 1.54 1.97 2.08 2.41 3.16 4.11 5.01 5.60 5.81 5.90 5.60 5.13 4.67 4.32 4.23 4.00 3.75 3.46 3.23 3.20 2.78 2.55 2.30 2.57 2.56 2.53 2.54 2.68 2.79 2.91 3.22 3.35 3.02 2.96
0.16 0.20 0.28 0.33 0.27 0.30 0.48 0.65 0.75 0.85 1.08 1.23 1.24 1.18 1.23 1.55 2.00 2.18 2.49 2.97 3.78 4.56 5.28 5.44 5.80 5.38 4.77 4.24 3.82 3.70 3.53 3.23 3.11 3.00 2.93 2.81 2.56 2.47 2.71 2.57 2.65 2.48 2.54 2.53 2.62 2.90 3.02 2.66 2.74
0.13 0.19 0.28 0.30 0.21 0.27 0.49 0.79 0.92 0.98 0.97 1.04 1.08 1.14 1.23 1.61 2.08 2.42 2.94 3.34 3.37 3.92 4.65 4.72 4.46 4.30 3.90 3.57 3.42 3.24 3.19 2.85 2.69 2.57 2.71 2.51 2.35 2.43 2.46 2.58 2.42 2.35 2.48 2.45 2.49 2.76 2.74 2.44 2.63
0.15 0.19 0.24 0.22 0.22 0.32 0.55 1.01 1.28 1.14 0.86 0.77 0.82 0.92 1.05 1.40 1.91 2.33 2.75 3.20 3.18 3.58 3.67 3.32 3.18 3.30 3.27 3.13 3.05 2.95 2.96 2.76 2.52 2.40 2.47 2.30 2.12 2.18 2.23 2.20 2.24 2.33 2.07 2.23 2.44 2.59 2.68 2.57 2.49
0.12 0.11 0.11 0.12 0.20 0.40 0.58 1.23 1.60 1.33 1.00 0.80 0.83 0.99 1.05 1.16 1.37 1.65 1.98 2.41 2.62 2.72 2.65 2.62 2.61 2.68 2.90 2.91 2.70 2.55 2.32 2.27 2.25 2.19 2.26 2.28 2.06 1.96 1.99 1.98 2.13 2.20 2.11 2.36 2.06 2.19 2.48 2.69 2.49
0.08 0.06 0.08 0.14 0.21 0.41 0.63 1.00 1.46 1.41 1.31 1.11 0.96 1.00 0.95 0.98 1.05 1.19 1.28 1.50 1.78 2.04 2.13 2.13 2.43 2.56 2.58 2.57 2.54 2.61 2.36 2.24 2.24 2.38 2.61 2.54 2.20 1.87 1.72 1.82 2.00 2.11 2.16 2.25 2.15 2.25 2.22 2.29 2.33
0.07 0.08 0.16 0.31 0.46 0.84 0.83 0.89 1.29 1.21 1.11 1.10 0.95 0.81 0.76 0.78 0.83 1.01 1.04 1.08 1.21 1.37 1.52 1.65 1.97 2.21 2.28 2.23 2.24 2.32 2.37 2.39 2.24 2.23 2.32 2.29 2.14 1.92 1.74 1.78 2.01 2.08 2.14 2.17 2.20 2.15 2.06 2.15 2.25
0.08 0.13 0.42 0.84 1.15 1.33 0.90 0.85 1.06 0.92 0.91 1.02 0.80 0.55 0.52 0.62 0.65 0.83 0.82 0.86 0.97 1.01 1.13 1.36 1.60 1.79 1.89 1.96 2.03 2.10 2.31 2.30 2.12 1.95 2.02 2.07 1.97 1.86 1.83 1.77 2.07 2.20 2.18 2.12 2.21 2.19 2.14 2.26 2.33
0.08 0.10 0.28 0.51 0.66 0.88 0.93 1.24 1.19 0.78 0.74 0.66 0.49 0.38 0.36 0.52 0.60 0.64 0.59 0.61 0.76 0.84 0.95 1.13 1.31 1.42 1.54 1.74 1.94 1.94 2.09 1.96 1.86 2.01 1.92 1.82 1.64 1.70 1.94 2.04 2.06 2.08 2.12 2.10 2.36 2.20 2.22 2.30 2.31
0.07 0.07 0.10 0.17 0.25 0.57 1.00 1.35 1.15 0.74 0.68 0.53 0.39 0.33 0.38 0.43 0.56 0.55 0.49 0.51 0.56 0.63 0.73 0.96 1.25 1.32 1.35 1.44 1.65 1.75 1.74 1.76 1.88 2.09 2.02 1.86 1.78 1.69 1.90 2.06 2.16 2.09 2.08 2.20 2.43 2.39 2.42 2.52 2.40
0.07 0.08 0.09 0.15 0.27 0.47 0.84 1.23 1.38 1.14 0.80 0.55 0.47 0.45 0.54 0.54 0.65 0.69 0.56 0.55 0.57 0.59 0.71 0.84 1.01 1.24 1.42 1.38 1.35 1.36 1.61 1.68 1.82 1.94 1.87 1.85 1.84 1.88 1.98 1.97 2.00 1.99 1.96 2.10 2.46 2.47 2.48 2.67 2.61
0.09 0.10 0.10 0.13 0.21 0.35 0.68 0.96 0.91 0.91 0.71 0.56 0.58 0.68 0.56 0.53 0.60 0.69 0.54 0.53 0.54 0.62 0.72 0.84 0.98 1.25 1.41 1.28 1.28 1.38 1.55 1.66 1.72 1.91 1.90 1.85 1.87 1.98 2.00 1.99 1.98 1.91 1.81 1.93 2.15 2.25 2.44 2.58 2.62
0.11 0.12 0.12 0.16 0.19 0.21 0.37 0.63 0.56 0.64 0.63 0.71 0.74 0.70 0.63 0.63 0.65 0.71 0.67 0.76 0.79 0.87 0.91 0.95 1.02 1.18 1.28 1.27 1.31 1.38 1.49 1.57 1.66 1.76 1.87 1.93 1.92 2.02 2.06 2.06 2.01 1.84 1.82 1.93 2.04 2.16 2.35 2.47 2.55